Weather History for Covington, KY

Change the Weather History Date:

Sunday, November 18, 2012

  Actual Average Record
Temperature  
Mean Temperature 46 °F 44 °F  
Max Temperature 60 °F 53 °F 76 °F (1930)
Min Temperature 31 °F 36 °F 12 °F (1880)
Degree Days  
Heating Degree Days 19 21  
Month to date heating degree days 391 314  
Since 1 July heating degree days 819 676  
Cooling Degree Days 0 0  
Month to date cooling degree days 0 0  
Year to date cooling degree days 1439 1121  
Moisture  
Dew Point 27 °F    
Average Humidity 53    
Maximum Humidity 78    
Minimum Humidity 28    
Precipitation  
Precipitation 0.00 in 0.13 in 2.12 in (1957)
Month to date precipitation 1.02 1.98  
Year to date precipitation 32.97 37.70  
Snow  
Snow 0.00 in 0.10 in 2.00 in (1955)
Month to date snowfall 0.0 0.2  
Since 1 July snowfall T 0.6  
Since 1 September snowfall T 0.6  
Snow Depth 0.00 in    
Sea Level Pressure  
Sea Level Pressure 30.42 in    
Wind  
Wind Speed 3 mph (ENE)    
Max Wind Speed 9 mph    
Max Gust Speed 12 mph    
Visibility 10 miles    
Events      
T = Trace of Precipitation, MM = Missing Value Source: NWS Daily Summary

Daily Weather History Graph

Daily Weather History Graph

Search for Another Location

Airport:

Trip Planner

Search our weather history database for the weather conditions in past years. The results will help you decide how hot, cold, wet, or windy it might be!

Date:

Astronomy

Nov. 18, 2012 Rise Set
Actual Time 7:25 AM EST 5:22 PM EST
Civil Twilight 6:56 AM EST 5:50 PM EST
Nautical Twilight 6:24 AM EST 6:23 PM EST
Astronomical Twilight 5:52 AM EST 6:55 PM EST
Moon 11:52 AM EST (11/18) 10:40 PM EST (11/18)
Length of Visible Light 10h 54m
Length of Day
9h 56m
Waxing Crescent, 30% of the Moon is Illuminated
Nov 18
Waxing Crescent
Nov 20
First Quarter
Nov 28
Full
Dec 6
Last Quarter
Dec 13
New

Hourly Weather History & Observations

Time (EST) Temp. Windchill Dew Point Humidity Pressure Visibility Wind Dir Wind Speed Gust Speed Precip Events Conditions
12:52 AM 41.0 °F 38.0 °F 27.0 °F 57% 30.45 in 10.0 mi NNE 4.6 mph - N/A   Clear
1:52 AM 39.0 °F - 28.0 °F 65% 30.45 in 10.0 mi Calm Calm - N/A   Clear
2:52 AM 39.9 °F 37.8 °F 27.0 °F 60% 30.43 in 10.0 mi NE 3.5 mph - N/A   Clear
3:52 AM 37.9 °F 35.5 °F 26.1 °F 62% 30.43 in 10.0 mi ENE 3.5 mph - N/A   Clear
4:52 AM 37.0 °F 33.3 °F 26.1 °F 65% 30.43 in 10.0 mi East 4.6 mph - N/A   Clear
5:52 AM 36.0 °F 33.3 °F 27.0 °F 70% 30.44 in 10.0 mi East 3.5 mph - N/A   Clear
6:52 AM 36.0 °F 32.1 °F 26.1 °F 67% 30.44 in 10.0 mi East 4.6 mph - N/A   Scattered Clouds
7:52 AM 30.9 °F - 25.0 °F 79% 30.45 in 10.0 mi Calm Calm - N/A   Scattered Clouds
8:52 AM 39.0 °F 35.7 °F 30.0 °F 70% 30.47 in 9.0 mi NE 4.6 mph - N/A   Scattered Clouds
9:52 AM 45.0 °F 41.2 °F 30.0 °F 56% 30.45 in 10.0 mi ESE 6.9 mph - N/A   Partly Cloudy
10:52 AM 50.0 °F - 28.0 °F 43% 30.45 in 10.0 mi ESE 6.9 mph - N/A   Partly Cloudy
11:52 AM 52.0 °F - 28.0 °F 40% 30.43 in 10.0 mi Calm Calm - N/A   Partly Cloudy
12:52 PM 55.0 °F - 28.0 °F 35% 30.41 in 10.0 mi Calm Calm - N/A   Scattered Clouds
1:52 PM 59.0 °F - 28.0 °F 31% 30.39 in 10.0 mi Calm Calm - N/A   Scattered Clouds
2:52 PM 59.0 °F - 26.1 °F 28% 30.37 in 10.0 mi Calm Calm - N/A   Scattered Clouds
3:52 PM 59.0 °F - 26.1 °F 28% 30.36 in 10.0 mi NE 6.9 mph - N/A   Scattered Clouds
4:52 PM 55.9 °F - 26.1 °F 32% 30.37 in 10.0 mi NE 5.8 mph - N/A   Scattered Clouds
5:52 PM 51.1 °F - 26.1 °F 38% 30.38 in 10.0 mi Calm Calm - N/A   Scattered Clouds
6:52 PM 46.0 °F - 26.1 °F 46% 30.39 in 10.0 mi Calm Calm - N/A   Scattered Clouds
7:52 PM 46.0 °F - 27.0 °F 47% 30.40 in 10.0 mi Calm Calm - N/A   Scattered Clouds
8:52 PM 45.0 °F 42.6 °F 28.0 °F 52% 30.39 in 10.0 mi East 4.6 mph - N/A   Partly Cloudy
9:52 PM 44.1 °F - 26.1 °F 49% 30.40 in 10.0 mi Calm Calm - N/A   Partly Cloudy
10:52 PM 43.0 °F - 26.1 °F 51% 30.39 in 10.0 mi Calm Calm - N/A   Partly Cloudy
11:52 PM 39.0 °F 36.8 °F 26.1 °F 60% 30.38 in 10.0 mi East 3.5 mph - N/A   Clear